Time,TemperatureF,DewpointF,PressureIn,WindDirection,WindDirectionDegrees,WindSpeedMPH,WindSpeedGustMPH,Humidity,HourlyPrecipIn,Conditions,Clouds,dailyrainin,SoftwareType,DateUTC
2016-07-25 00:01:00,79.9,70.9,29.96,SSW,202,2.3,2.3,74,0.00,CLR,,0.00,WeatherDisplay:10.37,2016-07-25 04:01:00,
2016-07-25 00:06:00,79.9,70.9,29.97,SE,135,2.3,2.3,74,0.00,CLR,,0.00,WeatherDisplay:10.37,2016-07-25 04:06:00,
2016-07-25 00:11:00,79.9,70.9,29.97,SW,225,2.7,2.7,74,0.00,CLR,,0.00,WeatherDisplay:10.37,2016-07-25 04:11:00,
2016-07-25 00:16:00,79.5,70.5,29.96,NNE,22,1.1,1.1,74,0.00,CLR,,0.00,WeatherDisplay:10.37,2016-07-25 04:16:00,
2016-07-25 00:21:00,79.3,70.3,29.96,ESE,112,1.2,0.0,74,0.00,CLR,,0.00,WeatherDisplay:10.37,2016-07-25 04:21:00,
2016-07-25 00:26:00,79.5,70.5,29.96,SSE,158,2.3,2.3,74,0.00,CLR,,0.00,WeatherDisplay:10.37,2016-07-25 04:26:00,
2016-07-25 00:31:00,79.7,70.7,29.96,South,180,3.5,3.5,74,0.00,CLR,,0.00,WeatherDisplay:10.37,2016-07-25 04:31:00,
2016-07-25 00:36:00,79.7,70.7,29.96,SW,225,2.3,2.3,74,0.00,CLR,,0.00,WeatherDisplay:10.37,2016-07-25 04:36:00,
2016-07-25 00:41:00,79.7,70.7,29.97,SW,225,3.5,3.5,74,0.00,CLR,,0.00,WeatherDisplay:10.37,2016-07-25 04:41:00,
2016-07-25 00:46:00,79.7,70.7,29.97,SSW,202,4.6,4.6,74,0.00,CLR,,0.00,WeatherDisplay:10.37,2016-07-25 04:46:00,
2016-07-25 00:51:00,79.7,70.7,29.97,SSE,158,4.6,4.6,74,0.00,CLR,,0.00,WeatherDisplay:10.37,2016-07-25 04:51:00,
2016-07-25 00:56:00,79.5,70.5,29.97,South,180,2.3,2.3,74,0.00,CLR,,0.00,WeatherDisplay:10.37,2016-07-25 04:56:00,
2016-07-25 01:01:00,79.3,70.3,29.97,ENE,68,0.0,0.0,74,0.00,CLR,,0.00,WeatherDisplay:10.37,2016-07-25 05:01:00,
2016-07-25 01:06:00,79.0,70.4,29.97,SSW,202,0.0,0.0,75,0.00,CLR,,0.00,WeatherDisplay:10.37,2016-07-25 05:06:00,
2016-07-25 01:11:00,78.8,70.6,29.97,NW,315,0.0,0.0,76,0.00,CLR,,0.00,WeatherDisplay:10.37,2016-07-25 05:11:00,
2016-07-25 01:16:00,78.8,70.6,29.98,ESE,112,1.2,0.0,76,0.00,CLR,,0.00,WeatherDisplay:10.37,2016-07-25 05:16:00,
2016-07-25 01:21:00,78.4,70.6,29.98,East,90,0.0,0.0,77,0.00,CLR,,0.00,WeatherDisplay:10.37,2016-07-25 05:21:00,
2016-07-25 01:26:00,78.3,70.5,29.98,West,270,3.5,3.5,77,0.00,CLR,,0.00,WeatherDisplay:10.37,2016-07-25 05:26:00,
2016-07-25 01:31:00,78.3,70.5,29.98,South,180,3.2,3.2,77,0.00,CLR,,0.00,WeatherDisplay:10.37,2016-07-25 05:31:00,
2016-07-25 01:36:00,78.3,70.5,29.98,South,180,3.5,3.5,77,0.00,CLR,,0.00,WeatherDisplay:10.37,2016-07-25 05:36:00,
2016-07-25 01:41:00,78.4,70.6,29.98,West,270,2.3,2.3,77,0.00,CLR,,0.00,WeatherDisplay:10.37,2016-07-25 05:41:00,
2016-07-25 01:46:00,78.1,70.3,29.98,South,180,1.2,1.2,77,0.00,CLR,,0.00,WeatherDisplay:10.37,2016-07-25 05:46:00,
2016-07-25 01:51:00,77.9,70.5,29.98,East,90,1.2,0.0,78,0.00,CLR,,0.00,WeatherDisplay:10.37,2016-07-25 05:51:00,
2016-07-25 01:56:00,77.7,70.3,29.98,WSW,248,2.7,2.7,78,0.00,CLR,,0.00,WeatherDisplay:10.37,2016-07-25 05:56:00,
2016-07-25 02:01:00,77.7,70.3,29.98,SE,135,1.2,0.0,78,0.00,CLR,,0.00,WeatherDisplay:10.37,2016-07-25 06:01:00,
2016-07-25 02:06:00,77.7,70.7,29.98,South,180,2.3,2.3,79,0.00,CLR,,0.00,WeatherDisplay:10.37,2016-07-25 06:06:00,
2016-07-25 02:11:00,77.5,70.5,29.98,WSW,248,2.3,2.3,79,0.00,CLR,,0.00,WeatherDisplay:10.37,2016-07-25 06:11:00,
2016-07-25 02:16:00,77.5,70.5,29.98,WSW,248,2.3,2.3,79,0.00,CLR,,0.00,WeatherDisplay:10.37,2016-07-25 06:16:00,
2016-07-25 02:21:00,77.4,70.4,29.98,WSW,248,4.6,4.6,79,0.00,CLR,,0.00,WeatherDisplay:10.37,2016-07-25 06:21:00,
2016-07-25 02:26:00,77.4,70.4,29.98,West,270,4.6,4.6,79,0.00,CLR,,0.00,WeatherDisplay:10.37,2016-07-25 06:26:00,
2016-07-25 02:31:00,77.4,70.4,29.98,West,270,3.5,3.5,79,0.00,CLR,,0.00,WeatherDisplay:10.37,2016-07-25 06:31:00,
2016-07-25 02:36:00,77.5,70.5,29.98,WSW,248,3.2,3.2,79,0.00,CLR,,0.00,WeatherDisplay:10.37,2016-07-25 06:36:00,
2016-07-25 02:41:00,77.5,70.5,29.99,West,270,3.5,3.5,79,0.00,CLR,,0.00,WeatherDisplay:10.37,2016-07-25 06:41:00,
2016-07-25 02:46:00,77.5,70.5,29.99,West,270,4.7,4.7,79,0.00,CLR,,0.00,WeatherDisplay:10.37,2016-07-25 06:46:00,
2016-07-25 02:51:00,77.9,70.9,29.98,SW,225,4.7,4.7,79,0.00,CLR,,0.00,WeatherDisplay:10.37,2016-07-25 06:51:00,
2016-07-25 02:56:00,78.1,70.7,29.98,SSW,202,4.6,4.6,78,0.00,CLR,,0.00,WeatherDisplay:10.37,2016-07-25 06:56:00,
2016-07-25 03:01:00,78.3,70.9,29.99,WSW,248,5.8,5.8,78,0.00,CLR,,0.00,WeatherDisplay:10.37,2016-07-25 07:01:00,
2016-07-25 03:06:00,78.3,70.9,29.99,NW,315,4.6,4.6,78,0.00,CLR,,0.00,WeatherDisplay:10.37,2016-07-25 07:06:00,
2016-07-25 03:11:00,78.3,70.9,29.99,West,270,3.5,3.5,78,0.00,CLR,,0.00,WeatherDisplay:10.37,2016-07-25 07:11:00,
2016-07-25 03:16:00,78.3,70.9,29.99,West,270,4.7,4.7,78,0.00,CLR,,0.00,WeatherDisplay:10.37,2016-07-25 07:16:00,
2016-07-25 03:21:00,78.3,70.9,29.99,SW,225,5.8,5.8,78,0.00,CLR,,0.00,WeatherDisplay:10.37,2016-07-25 07:21:00,
2016-07-25 03:26:00,78.4,71.0,29.98,WSW,248,4.6,4.6,78,0.00,CLR,,0.00,WeatherDisplay:10.37,2016-07-25 07:26:00,
2016-07-25 03:31:00,78.4,71.0,29.98,SW,225,5.8,5.8,78,0.00,CLR,,0.00,WeatherDisplay:10.37,2016-07-25 07:31:00,
2016-07-25 03:36:00,78.3,70.9,29.98,West,270,4.6,4.6,78,0.00,CLR,,0.00,WeatherDisplay:10.37,2016-07-25 07:36:00,
2016-07-25 03:41:00,78.3,70.9,29.99,SW,225,5.8,5.8,78,0.00,CLR,,0.00,WeatherDisplay:10.37,2016-07-25 07:41:00,
2016-07-25 03:46:00,78.3,70.9,29.99,SW,225,5.8,5.8,78,0.00,CLR,,0.00,WeatherDisplay:10.37,2016-07-25 07:46:00,
2016-07-25 03:51:00,78.3,70.9,29.98,SW,225,4.7,4.7,78,0.00,CLR,,0.00,WeatherDisplay:10.37,2016-07-25 07:51:00,
2016-07-25 03:56:00,78.1,70.7,29.98,SW,225,6.3,6.3,78,0.00,CLR,,0.00,WeatherDisplay:10.37,2016-07-25 07:56:00,
2016-07-25 04:01:00,78.1,70.7,29.98,West,270,4.7,4.7,78,0.00,CLR,,0.00,WeatherDisplay:10.37,2016-07-25 08:01:00,
2016-07-25 04:06:00,78.1,70.7,29.98,West,270,5.8,5.8,78,0.00,CLR,,0.00,WeatherDisplay:10.37,2016-07-25 08:06:00,
2016-07-25 04:11:00,77.9,70.5,29.98,SW,225,4.6,4.6,78,0.00,CLR,,0.00,WeatherDisplay:10.37,2016-07-25 08:11:00,
2016-07-25 04:16:00,77.9,70.9,29.98,SW,225,5.8,5.8,79,0.00,CLR,,0.00,WeatherDisplay:10.37,2016-07-25 08:16:00,
2016-07-25 04:21:00,77.9,70.9,29.98,WSW,248,5.8,5.8,79,0.00,CLR,,0.00,WeatherDisplay:10.37,2016-07-25 08:21:00,
2016-07-25 04:26:00,77.9,70.9,29.99,WSW,248,5.8,5.8,79,0.00,CLR,,0.00,WeatherDisplay:10.37,2016-07-25 08:26:00,
2016-07-25 04:31:00,77.9,70.9,29.99,South,180,5.8,5.8,79,0.00,CLR,,0.00,WeatherDisplay:10.37,2016-07-25 08:31:00,
2016-07-25 04:36:00,77.7,70.7,29.99,WSW,248,5.8,5.8,79,0.00,CLR,,0.00,WeatherDisplay:10.37,2016-07-25 08:36:00,
2016-07-25 04:41:00,77.7,70.7,29.98,WSW,248,5.8,5.8,79,0.00,CLR,,0.00,WeatherDisplay:10.37,2016-07-25 08:41:00,
2016-07-25 04:46:00,77.7,70.7,29.98,SW,225,5.8,5.8,79,0.00,CLR,,0.00,WeatherDisplay:10.37,2016-07-25 08:46:00,
2016-07-25 04:51:00,77.7,70.7,29.98,SW,225,5.8,5.8,79,0.00,CLR,,0.00,WeatherDisplay:10.37,2016-07-25 08:51:00,
2016-07-25 04:56:00,77.7,70.7,29.98,WSW,248,6.3,6.3,79,0.00,CLR,,0.00,WeatherDisplay:10.37,2016-07-25 08:56:00,
2016-07-25 05:01:00,77.7,70.7,29.98,West,270,4.6,4.6,79,0.00,CLR,,0.00,WeatherDisplay:10.37,2016-07-25 09:01:00,
2016-07-25 05:06:00,77.7,70.7,29.98,SW,225,6.9,6.9,79,0.00,CLR,,0.00,WeatherDisplay:10.37,2016-07-25 09:06:00,
2016-07-25 05:11:00,77.7,70.7,29.98,WSW,248,4.7,4.7,79,0.00,CLR,,0.00,WeatherDisplay:10.37,2016-07-25 09:11:00,
2016-07-25 05:16:00,77.7,70.7,29.98,SSW,202,5.8,5.8,79,0.00,CLR,,0.00,WeatherDisplay:10.37,2016-07-25 09:16:00,
2016-07-25 05:21:00,77.7,70.7,29.98,West,270,4.7,4.7,79,0.00,CLR,,0.00,WeatherDisplay:10.37,2016-07-25 09:21:00,
2016-07-25 05:26:00,77.7,71.0,29.98,WSW,248,3.7,3.7,80,0.00,CLR,,0.00,WeatherDisplay:10.37,2016-07-25 09:26:00,
2016-07-25 05:31:00,77.7,71.0,29.98,West,270,4.7,4.7,80,0.00,CLR,,0.00,WeatherDisplay:10.37,2016-07-25 09:31:00,
2016-07-25 05:36:00,77.5,70.8,29.98,West,270,4.6,4.6,80,0.00,CLR,,0.00,WeatherDisplay:10.37,2016-07-25 09:36:00,
2016-07-25 05:41:00,77.5,70.8,29.98,SSW,202,4.6,4.6,80,0.00,CLR,,0.00,WeatherDisplay:10.37,2016-07-25 09:41:00,
2016-07-25 05:46:00,77.4,71.1,29.98,SSW,202,5.8,5.8,81,0.00,CLR,,0.00,WeatherDisplay:10.37,2016-07-25 09:46:00,
2016-07-25 05:51:00,77.2,71.3,29.97,South,180,3.7,3.7,82,0.00,CLR,,0.00,WeatherDisplay:10.37,2016-07-25 09:51:00,
2016-07-25 05:56:00,76.8,70.9,29.97,South,180,3.5,3.5,82,0.00,CLR,,0.00,WeatherDisplay:10.37,2016-07-25 09:56:00,
2016-07-25 06:01:00,76.6,71.0,29.97,SSE,158,3.5,3.5,83,0.00,CLR,,0.00,WeatherDisplay:10.37,2016-07-25 10:01:00,
2016-07-25 06:06:00,76.5,70.9,29.98,SSE,158,4.6,4.6,83,0.00,CLR,,0.00,WeatherDisplay:10.37,2016-07-25 10:06:00,
2016-07-25 06:11:00,76.3,70.8,29.98,East,90,2.3,2.3,83,0.00,CLR,,0.00,WeatherDisplay:10.37,2016-07-25 10:11:00,
2016-07-25 06:16:00,76.3,71.1,29.98,WSW,248,0.0,0.0,84,0.00,CLR,,0.00,WeatherDisplay:10.37,2016-07-25 10:16:00,
2016-07-25 06:21:00,76.3,71.1,29.98,South,180,3.5,3.5,84,0.00,CLR,,0.00,WeatherDisplay:10.37,2016-07-25 10:21:00,
2016-07-25 06:26:00,76.3,71.1,29.98,SSW,202,3.5,3.5,84,0.00,CLR,,0.00,WeatherDisplay:10.37,2016-07-25 10:26:00,
2016-07-25 06:31:00,76.3,71.1,29.98,SSE,158,2.3,2.3,84,0.00,CLR,,0.00,WeatherDisplay:10.37,2016-07-25 10:31:00,
2016-07-25 06:36:00,76.3,71.1,29.98,SW,225,2.7,2.7,84,0.00,CLR,,0.00,WeatherDisplay:10.37,2016-07-25 10:36:00,
2016-07-25 06:41:00,76.1,70.9,29.98,SW,225,2.3,2.3,84,0.00,CLR,,0.00,WeatherDisplay:10.37,2016-07-25 10:41:00,
2016-07-25 06:46:00,76.1,70.9,29.98,SW,225,3.5,3.5,84,0.00,CLR,,0.00,WeatherDisplay:10.37,2016-07-25 10:46:00,
2016-07-25 06:51:00,76.1,70.9,29.98,SSW,202,4.6,4.6,84,0.00,CLR,,0.00,WeatherDisplay:10.37,2016-07-25 10:51:00,
2016-07-25 06:56:00,76.1,70.9,29.98,SSE,158,2.3,2.3,84,0.00,CLR,,0.00,WeatherDisplay:10.37,2016-07-25 10:56:00,
2016-07-25 07:01:00,76.1,70.9,29.98,South,180,1.2,1.2,84,0.00,CLR,,0.00,WeatherDisplay:10.37,2016-07-25 11:01:00,
2016-07-25 07:06:00,76.3,71.1,29.98,SW,225,2.3,2.3,84,0.00,CLR,,0.00,WeatherDisplay:10.37,2016-07-25 11:06:00,
2016-07-25 07:11:00,76.5,71.3,29.98,South,180,4.6,4.6,84,0.00,CLR,,0.00,WeatherDisplay:10.37,2016-07-25 11:11:00,
2016-07-25 07:16:00,76.5,71.3,29.98,South,180,2.3,2.3,84,0.00,CLR,,0.00,WeatherDisplay:10.37,2016-07-25 11:16:00,
2016-07-25 07:21:00,76.6,71.4,29.98,SSE,158,2.3,2.3,84,0.00,CLR,,0.00,WeatherDisplay:10.37,2016-07-25 11:21:00,
2016-07-25 07:26:00,76.6,71.4,29.99,SSW,202,4.6,4.6,84,0.00,CLR,,0.00,WeatherDisplay:10.37,2016-07-25 11:26:00,
2016-07-25 07:31:00,77.0,71.4,29.99,South,180,6.8,6.8,83,0.00,CLR,,0.00,WeatherDisplay:10.37,2016-07-25 11:31:00,
2016-07-25 07:36:00,77.2,71.3,29.99,SSW,202,3.7,3.7,82,0.00,CLR,,0.00,WeatherDisplay:10.37,2016-07-25 11:36:00,
2016-07-25 07:41:00,77.5,71.6,29.99,North,360,2.3,2.3,82,0.00,CLR,,0.00,WeatherDisplay:10.37,2016-07-25 11:41:00,
2016-07-25 07:46:00,77.7,71.4,29.99,West,270,3.5,3.5,81,0.00,CLR,,0.00,WeatherDisplay:10.37,2016-07-25 11:46:00,
2016-07-25 07:52:00,77.9,71.6,29.99,West,270,3.7,3.7,81,0.00,CLR,,0.00,WeatherDisplay:10.37,2016-07-25 11:52:00,
2016-07-25 07:57:00,77.9,71.6,29.99,SSE,158,5.8,5.8,81,0.00,CLR,,0.00,WeatherDisplay:10.37,2016-07-25 11:57:00,
2016-07-25 08:02:00,78.3,72.0,29.99,SSE,158,2.7,2.7,81,0.00,CLR,,0.00,WeatherDisplay:10.37,2016-07-25 12:02:00,
2016-07-25 08:07:00,78.6,71.9,29.99,ESE,112,2.3,2.3,80,0.00,CLR,,0.00,WeatherDisplay:10.37,2016-07-25 12:07:00,
2016-07-25 08:12:00,79.2,72.5,29.99,WSW,248,3.5,3.5,80,0.00,CLR,,0.00,WeatherDisplay:10.37,2016-07-25 12:12:00,
2016-07-25 08:17:00,79.3,72.2,29.99,WSW,248,3.5,3.5,79,0.00,CLR,,0.00,WeatherDisplay:10.37,2016-07-25 12:17:00,
2016-07-25 08:22:00,79.3,72.2,29.99,WSW,248,5.8,5.8,79,0.00,CLR,,0.00,WeatherDisplay:10.37,2016-07-25 12:22:00,
2016-07-25 08:27:00,79.5,72.4,29.99,NNW,338,6.9,6.9,79,0.00,CLR,,0.00,WeatherDisplay:10.37,2016-07-25 12:27:00,
2016-07-25 08:32:00,79.7,72.2,29.99,WSW,248,4.6,4.6,78,0.00,CLR,,0.00,WeatherDisplay:10.37,2016-07-25 12:32:00,
2016-07-25 08:37:00,79.9,72.4,29.99,SW,225,6.9,6.9,78,0.00,CLR,,0.00,WeatherDisplay:10.37,2016-07-25 12:37:00,
2016-07-25 08:42:00,80.2,72.7,29.99,WSW,248,6.9,6.9,78,0.00,CLR,,0.00,WeatherDisplay:10.37,2016-07-25 12:42:00,
2016-07-25 08:47:00,80.4,72.5,29.99,SSW,202,5.8,5.8,77,0.00,CLR,,0.00,WeatherDisplay:10.37,2016-07-25 12:47:00,
2016-07-25 08:52:00,80.8,72.9,29.99,West,270,8.1,8.1,77,0.00,CLR,,0.00,WeatherDisplay:10.37,2016-07-25 12:52:00,
2016-07-25 08:57:00,80.8,72.9,29.99,West,270,7.8,7.8,77,0.00,CLR,,0.00,WeatherDisplay:10.37,2016-07-25 12:57:00,
2016-07-25 09:02:00,80.8,72.9,29.99,WSW,248,8.3,8.3,77,0.00,CLR,,0.00,WeatherDisplay:10.37,2016-07-25 13:02:00,
2016-07-25 09:07:00,81.1,73.2,29.99,West,270,5.8,5.8,77,0.00,CLR,,0.00,WeatherDisplay:10.37,2016-07-25 13:07:00,
2016-07-25 09:12:00,81.7,73.4,29.99,WSW,248,6.8,7.1,76,0.00,CLR,,0.00,WeatherDisplay:10.37,2016-07-25 13:12:00,
2016-07-25 09:17:00,81.9,73.2,29.98,SW,225,6.9,6.9,75,0.00,CLR,,0.00,WeatherDisplay:10.37,2016-07-25 13:17:00,
2016-07-25 09:22:00,82.0,73.3,29.98,WSW,248,5.8,5.8,75,0.00,CLR,,0.00,WeatherDisplay:10.37,2016-07-25 13:22:00,
2016-07-25 09:27:00,82.0,73.3,29.99,West,270,8.1,8.1,75,0.00,CLR,,0.00,WeatherDisplay:10.37,2016-07-25 13:27:00,
2016-07-25 09:32:00,82.0,73.3,29.99,WSW,248,8.1,8.1,75,0.00,CLR,,0.00,WeatherDisplay:10.37,2016-07-25 13:32:00,
2016-07-25 09:37:00,82.4,73.7,29.99,West,270,4.6,4.6,75,0.00,CLR,,0.00,WeatherDisplay:10.37,2016-07-25 13:37:00,
2016-07-25 09:42:00,82.8,73.7,29.99,SW,225,5.8,5.8,74,0.00,CLR,,0.00,WeatherDisplay:10.37,2016-07-25 13:42:00,
2016-07-25 09:47:00,83.7,74.1,29.99,SW,225,4.6,4.6,73,0.00,CLR,,0.00,WeatherDisplay:10.37,2016-07-25 13:47:00,
2016-07-25 09:52:00,84.2,73.8,29.98,SW,225,6.9,6.9,71,0.00,CLR,,0.00,WeatherDisplay:10.37,2016-07-25 13:52:00,
2016-07-25 09:57:00,84.7,74.3,29.98,SW,225,5.8,5.8,71,0.00,CLR,,0.00,WeatherDisplay:10.37,2016-07-25 13:57:00,
2016-07-25 10:02:00,84.6,74.2,29.98,SSW,202,6.3,6.3,71,0.00,CLR,,0.00,WeatherDisplay:10.37,2016-07-25 14:02:00,
2016-07-25 10:07:00,84.6,73.7,29.98,West,270,6.9,6.9,70,0.00,CLR,,0.00,WeatherDisplay:10.37,2016-07-25 14:07:00,
2016-07-25 10:12:00,85.1,73.8,29.98,West,270,6.9,6.9,69,0.00,CLR,,0.00,WeatherDisplay:10.37,2016-07-25 14:12:00,
2016-07-25 10:17:00,85.8,74.0,29.98,West,270,10.4,10.4,68,0.00,CLR,,0.00,WeatherDisplay:10.37,2016-07-25 14:17:00,
2016-07-25 10:22:00,85.8,73.6,29.98,NW,315,8.3,8.3,67,0.00,CLR,,0.00,WeatherDisplay:10.37,2016-07-25 14:22:00,
2016-07-25 10:27:00,86.5,73.3,29.98,West,270,4.7,4.7,65,0.00,CLR,,0.00,WeatherDisplay:10.37,2016-07-25 14:27:00,
2016-07-25 10:32:00,86.5,73.3,29.98,SSW,202,8.1,8.1,65,0.00,CLR,,0.00,WeatherDisplay:10.37,2016-07-25 14:32:00,
2016-07-25 10:37:00,87.3,73.6,29.98,West,270,8.1,8.1,64,0.00,CLR,,0.00,WeatherDisplay:10.37,2016-07-25 14:37:00,
2016-07-25 10:42:00,87.3,73.2,29.98,SW,225,9.9,9.9,63,0.00,CLR,,0.00,WeatherDisplay:10.37,2016-07-25 14:42:00,
2016-07-25 10:47:00,87.6,73.4,29.98,West,270,10.4,10.4,63,0.00,CLR,,0.00,WeatherDisplay:10.37,2016-07-25 14:47:00,
2016-07-25 10:52:00,87.1,73.4,29.99,West,270,10.4,10.4,64,0.00,CLR,,0.00,WeatherDisplay:10.37,2016-07-25 14:52:00,
2016-07-25 10:57:00,86.4,73.2,29.99,West,270,10.9,10.9,65,0.00,CLR,,0.00,WeatherDisplay:10.37,2016-07-25 14:57:00,
2016-07-25 11:02:00,86.2,73.5,29.99,West,270,9.2,9.2,66,0.00,CLR,,0.00,WeatherDisplay:10.37,2016-07-25 15:02:00,
2016-07-25 11:07:00,87.6,73.4,29.99,West,270,5.8,5.8,63,0.00,CLR,,0.00,WeatherDisplay:10.37,2016-07-25 15:07:00,
2016-07-25 11:12:00,87.4,73.3,29.99,West,270,5.8,5.9,63,0.00,CLR,,0.00,WeatherDisplay:10.37,2016-07-25 15:12:00,
2016-07-25 11:17:00,88.0,73.8,30.00,NNW,338,6.9,6.9,63,0.00,CLR,,0.00,WeatherDisplay:10.37,2016-07-25 15:17:00,
2016-07-25 11:22:00,88.0,73.8,30.00,WSW,248,5.8,5.8,63,0.00,CLR,,0.00,WeatherDisplay:10.37,2016-07-25 15:22:00,
2016-07-25 11:27:00,87.8,73.6,30.00,SW,225,8.1,8.1,63,0.00,CLR,,0.00,WeatherDisplay:10.37,2016-07-25 15:27:00,
2016-07-25 11:32:00,87.1,74.4,30.00,WSW,248,4.6,4.6,66,0.00,CLR,,0.00,WeatherDisplay:10.37,2016-07-25 15:32:00,
2016-07-25 11:37:00,85.8,73.6,30.00,SW,225,5.8,5.8,67,0.00,CLR,,0.00,WeatherDisplay:10.37,2016-07-25 15:37:00,
2016-07-25 11:42:00,85.8,73.1,30.00,West,270,6.9,6.9,66,0.00,CLR,,0.00,WeatherDisplay:10.37,2016-07-25 15:42:00,
2016-07-25 11:47:00,87.4,73.7,30.00,NE,45,5.8,5.8,64,0.00,CLR,,0.00,WeatherDisplay:10.37,2016-07-25 15:47:00,
2016-07-25 11:52:00,88.7,74.5,30.00,SW,225,5.8,5.8,63,0.00,CLR,,0.00,WeatherDisplay:10.37,2016-07-25 15:52:00,
2016-07-25 11:57:00,88.2,73.5,30.00,West,270,8.1,8.1,62,0.00,CLR,,0.00,WeatherDisplay:10.37,2016-07-25 15:57:00,
2016-07-25 12:02:00,86.2,73.0,30.00,NW,315,5.8,5.8,65,0.00,CLR,,0.00,WeatherDisplay:10.37,2016-07-25 16:02:00,
2016-07-25 12:07:00,88.0,73.8,30.00,NNE,22,4.6,4.6,63,0.00,CLR,,0.00,WeatherDisplay:10.37,2016-07-25 16:07:00,
2016-07-25 12:12:00,89.2,72.5,30.00,SW,225,8.9,8.9,58,0.00,CLR,,0.00,WeatherDisplay:10.37,2016-07-25 16:12:00,
2016-07-25 12:17:00,89.4,73.2,30.00,West,270,8.1,8.1,59,0.00,CLR,,0.00,WeatherDisplay:10.37,2016-07-25 16:17:00,
2016-07-25 12:22:00,89.4,72.2,30.00,West,270,12.7,12.7,57,0.00,CLR,,0.00,WeatherDisplay:10.37,2016-07-25 16:22:00,
2016-07-25 12:27:00,89.8,72.5,30.00,SW,225,10.4,10.4,57,0.00,CLR,,0.00,WeatherDisplay:10.37,2016-07-25 16:27:00,
2016-07-25 12:32:00,90.0,72.7,30.00,WSW,248,6.9,6.9,57,0.00,CLR,,0.00,WeatherDisplay:10.37,2016-07-25 16:32:00,
2016-07-25 12:37:00,90.0,72.7,30.00,West,270,9.2,9.2,57,0.00,CLR,,0.00,WeatherDisplay:10.37,2016-07-25 16:37:00,
2016-07-25 12:42:00,89.2,73.0,30.00,West,270,5.8,5.8,59,0.00,CLR,,0.00,WeatherDisplay:10.37,2016-07-25 16:42:00,
2016-07-25 12:47:00,90.1,73.3,30.00,WSW,248,8.1,8.1,58,0.00,CLR,,0.00,WeatherDisplay:10.37,2016-07-25 16:47:00,
2016-07-25 12:52:00,91.2,73.8,30.00,West,270,7.3,7.3,57,0.00,CLR,,0.00,WeatherDisplay:10.37,2016-07-25 16:52:00,
2016-07-25 12:57:00,89.4,72.2,30.00,SSW,202,6.9,6.9,57,0.00,CLR,,0.00,WeatherDisplay:10.37,2016-07-25 16:57:00,
2016-07-25 13:02:00,88.9,72.7,29.99,WNW,292,5.3,5.3,59,0.00,CLR,,0.00,WeatherDisplay:10.37,2016-07-25 17:02:00,
2016-07-25 13:07:00,88.7,72.5,29.99,East,90,8.3,8.3,59,0.00,CLR,,0.00,WeatherDisplay:10.37,2016-07-25 17:07:00,
2016-07-25 13:12:00,88.0,71.9,29.99,WNW,292,5.8,5.8,59,0.00,CLR,,0.00,WeatherDisplay:10.37,2016-07-25 17:12:00,
2016-07-25 13:17:00,88.0,72.9,29.99,SW,225,6.3,6.3,61,0.00,CLR,,0.00,WeatherDisplay:10.37,2016-07-25 17:17:00,
2016-07-25 13:22:00,87.8,72.2,29.99,West,270,8.1,8.1,60,0.00,CLR,,0.00,WeatherDisplay:10.37,2016-07-25 17:22:00,
2016-07-25 13:27:00,87.4,72.8,29.99,WSW,248,8.1,8.1,62,0.00,CLR,,0.00,WeatherDisplay:10.37,2016-07-25 17:27:00,
2016-07-25 13:32:00,88.5,72.3,29.99,SW,225,9.2,9.2,59,0.00,CLR,,0.00,WeatherDisplay:10.37,2016-07-25 17:32:00,
2016-07-25 13:37:00,90.3,73.0,29.99,West,270,9.2,9.2,57,0.00,CLR,,0.00,WeatherDisplay:10.37,2016-07-25 17:37:00,
2016-07-25 13:43:00,90.7,73.9,29.98,WSW,248,7.3,7.3,58,0.00,CLR,,0.00,WeatherDisplay:10.37,2016-07-25 17:43:00,
2016-07-25 13:48:00,89.6,72.9,29.98,WSW,248,6.9,6.9,58,0.00,CLR,,0.00,WeatherDisplay:10.37,2016-07-25 17:48:00,
2016-07-25 13:53:00,90.9,72.5,29.98,West,270,8.1,8.1,55,0.00,CLR,,0.00,WeatherDisplay:10.37,2016-07-25 17:53:00,
2016-07-25 13:58:00,90.0,71.7,29.98,NNW,338,8.1,8.1,55,0.00,CLR,,0.00,WeatherDisplay:10.37,2016-07-25 17:58:00,
2016-07-25 14:03:00,91.6,72.0,29.97,SSW,202,8.9,8.9,53,0.00,CLR,,0.00,WeatherDisplay:10.37,2016-07-25 18:03:00,
2016-07-25 14:08:00,91.2,71.7,29.97,South,180,9.2,9.2,53,0.00,CLR,,0.00,WeatherDisplay:10.37,2016-07-25 18:08:00,
2016-07-25 14:13:00,91.2,72.2,29.97,NW,315,5.8,5.8,54,0.00,CLR,,0.00,WeatherDisplay:10.37,2016-07-25 18:13:00,
2016-07-25 14:18:00,91.4,71.3,29.97,West,270,6.9,6.9,52,0.00,CLR,,0.00,WeatherDisplay:10.37,2016-07-25 18:18:00,
2016-07-25 14:23:00,90.3,72.5,29.97,WSW,248,8.3,8.3,56,0.00,CLR,,0.00,WeatherDisplay:10.37,2016-07-25 18:23:00,
2016-07-25 14:28:00,90.1,72.3,29.97,NNE,22,6.9,6.9,56,0.00,CLR,,0.00,WeatherDisplay:10.37,2016-07-25 18:28:00,
2016-07-25 14:33:00,90.0,72.2,29.97,West,270,8.3,8.3,56,0.00,CLR,,0.00,WeatherDisplay:10.37,2016-07-25 18:33:00,
2016-07-25 14:38:00,90.3,71.4,29.97,SSW,202,9.9,9.9,54,0.00,CLR,,0.00,WeatherDisplay:10.37,2016-07-25 18:38:00,
2016-07-25 14:43:00,90.9,72.5,29.97,North,360,6.9,6.9,55,0.00,CLR,,0.00,WeatherDisplay:10.37,2016-07-25 18:43:00,
2016-07-25 14:48:00,90.7,72.3,29.97,SW,225,9.2,9.2,55,0.00,CLR,,0.00,WeatherDisplay:10.37,2016-07-25 18:48:00,
2016-07-25 14:53:00,90.5,73.2,29.96,NNE,22,5.8,5.8,57,0.00,CLR,,0.00,WeatherDisplay:10.37,2016-07-25 18:53:00,
2016-07-25 14:58:00,90.3,72.5,29.96,SW,225,6.9,6.9,56,0.00,CLR,,0.00,WeatherDisplay:10.37,2016-07-25 18:58:00,
2016-07-25 15:03:00,90.0,72.2,29.97,SW,225,8.3,8.3,56,0.00,CLR,,0.00,WeatherDisplay:10.37,2016-07-25 19:03:00,
2016-07-25 15:08:00,88.7,72.0,29.97,WSW,248,5.8,5.8,58,0.00,CLR,,0.00,WeatherDisplay:10.37,2016-07-25 19:08:00,
2016-07-25 15:13:00,90.0,73.2,29.97,West,270,7.8,7.8,58,0.00,CLR,,0.00,WeatherDisplay:10.37,2016-07-25 19:13:00,
2016-07-25 15:18:00,90.1,71.8,29.96,NNW,338,8.1,8.1,55,0.00,CLR,,0.00,WeatherDisplay:10.37,2016-07-25 19:18:00,
2016-07-25 15:23:00,90.7,72.8,29.96,SSW,202,5.8,5.8,56,0.00,CLR,,0.00,WeatherDisplay:10.37,2016-07-25 19:23:00,
2016-07-25 15:28:00,91.6,73.7,29.95,SW,225,4.7,4.7,56,0.00,CLR,,0.00,WeatherDisplay:10.37,2016-07-25 19:28:00,
2016-07-25 15:33:00,91.0,72.0,29.95,SSW,202,6.9,6.9,54,0.00,CLR,,0.00,WeatherDisplay:10.37,2016-07-25 19:33:00,
2016-07-25 15:38:00,90.7,72.8,29.95,SW,225,6.9,6.9,56,0.00,CLR,,0.00,WeatherDisplay:10.37,2016-07-25 19:38:00,
2016-07-25 15:43:00,91.4,74.0,29.95,SSW,202,3.5,3.5,57,0.00,CLR,,0.00,WeatherDisplay:10.37,2016-07-25 19:43:00,
2016-07-25 15:48:00,91.2,73.3,29.95,West,270,4.6,4.6,56,0.00,CLR,,0.00,WeatherDisplay:10.37,2016-07-25 19:48:00,
2016-07-25 15:53:00,89.8,72.5,29.94,WNW,292,5.8,5.8,57,0.00,CLR,,0.00,WeatherDisplay:10.37,2016-07-25 19:53:00,
2016-07-25 15:58:00,89.2,72.5,29.94,North,360,3.5,3.5,58,0.00,CLR,,0.00,WeatherDisplay:10.37,2016-07-25 19:58:00,
2016-07-25 16:03:00,89.2,73.5,29.94,NW,315,3.5,3.5,60,0.00,CLR,,0.00,WeatherDisplay:10.37,2016-07-25 20:03:00,
2016-07-25 16:08:00,88.2,73.0,29.94,North,360,3.5,3.5,61,0.00,CLR,,0.00,WeatherDisplay:10.37,2016-07-25 20:08:00,
2016-07-25 16:13:00,88.0,72.9,29.94,SW,225,4.6,4.6,61,0.00,CLR,,0.00,WeatherDisplay:10.37,2016-07-25 20:13:00,
2016-07-25 16:18:00,88.5,73.8,29.94,West,270,4.7,4.7,62,0.00,CLR,,0.00,WeatherDisplay:10.37,2016-07-25 20:18:00,
2016-07-25 16:21:00,87.8,73.6,29.94,West,270,5.8,5.8,63,0.00,CLR,,0.00,WeatherDisplay:10.37,2016-07-25 20:21:00,
2016-07-25 16:26:00,85.3,74.0,29.94,SW,225,10.4,10.4,69,0.00,CLR,,0.00,WeatherDisplay:10.37,2016-07-25 20:26:00,
2016-07-25 16:31:00,82.8,72.8,29.94,WSW,248,11.5,11.5,72,0.00,CLR,,0.00,WeatherDisplay:10.37,2016-07-25 20:31:00,
2016-07-25 16:36:00,81.3,71.0,29.94,WSW,248,8.1,8.1,71,0.01,RA,,0.01,WeatherDisplay:10.37,2016-07-25 20:36:00,
2016-07-25 16:41:00,79.7,70.3,29.95,West,270,3.7,3.7,73,0.02,RA,,0.02,WeatherDisplay:10.37,2016-07-25 20:41:00,
2016-07-25 16:46:00,80.1,70.7,29.95,SW,225,2.3,2.3,73,0.02,RA,,0.02,WeatherDisplay:10.37,2016-07-25 20:46:00,
2016-07-25 16:51:00,80.2,70.4,29.95,West,270,5.3,5.3,72,0.02,,,0.02,WeatherDisplay:10.37,2016-07-25 20:51:00,
2016-07-25 16:56:00,80.4,69.7,29.95,South,180,5.8,5.8,70,0.02,,,0.02,WeatherDisplay:10.37,2016-07-25 20:56:00,
2016-07-25 17:01:00,83.1,71.9,29.95,South,180,3.5,3.5,69,0.02,,,0.02,WeatherDisplay:10.37,2016-07-25 21:01:00,
2016-07-25 17:06:00,84.6,71.1,29.94,SW,225,3.5,3.5,64,0.02,,,0.02,WeatherDisplay:10.37,2016-07-25 21:06:00,
2016-07-25 17:11:00,86.0,72.4,29.94,SE,135,2.7,2.7,64,0.02,,,0.02,WeatherDisplay:10.37,2016-07-25 21:11:00,
2016-07-25 18:02:00,83.8,71.7,29.95,ESE,112,2.7,2.7,67,0.00,CLR,,0.02,WeatherDisplay:10.37,2016-07-25 22:02:00,
2016-07-25 18:07:00,82.6,71.0,29.95,SSW,202,2.7,2.9,68,0.00,CLR,,0.02,WeatherDisplay:10.37,2016-07-25 22:07:00,
2016-07-25 18:12:00,84.7,72.1,29.95,ESE,112,3.5,3.5,66,0.00,CLR,,0.02,WeatherDisplay:10.37,2016-07-25 22:12:00,
2016-07-25 18:17:00,83.3,72.1,29.95,SSE,158,4.6,4.6,69,0.00,CLR,,0.02,WeatherDisplay:10.37,2016-07-25 22:17:00,
2016-07-25 18:22:00,82.8,71.6,29.95,SW,225,4.6,4.6,69,0.00,CLR,,0.02,WeatherDisplay:10.37,2016-07-25 22:22:00,
2016-07-25 18:27:00,82.4,72.0,29.96,ESE,112,4.6,4.6,71,0.00,CLR,,0.02,WeatherDisplay:10.37,2016-07-25 22:27:00,
2016-07-25 18:32:00,83.5,72.3,29.96,SSE,158,3.7,3.7,69,0.00,CLR,,0.02,WeatherDisplay:10.37,2016-07-25 22:32:00,
2016-07-25 18:38:00,82.6,72.2,29.96,South,180,7.3,7.3,71,0.00,CLR,,0.02,WeatherDisplay:10.37,2016-07-25 22:38:00,
2016-07-25 18:43:00,82.0,71.7,29.96,SW,225,5.8,5.8,71,0.00,CLR,,0.02,WeatherDisplay:10.37,2016-07-25 22:43:00,
2016-07-25 18:48:00,81.5,71.2,29.96,SSW,202,5.8,5.8,71,0.00,CLR,,0.02,WeatherDisplay:10.37,2016-07-25 22:48:00,
2016-07-25 18:53:00,80.8,70.1,29.96,West,270,6.3,6.3,70,0.00,CLR,,0.02,WeatherDisplay:10.37,2016-07-25 22:53:00,
2016-07-25 18:58:00,81.1,70.0,29.96,SSW,202,2.3,2.4,69,0.00,CLR,,0.02,WeatherDisplay:10.37,2016-07-25 22:58:00,
2016-07-25 19:15:00,80.1,69.0,29.96,SSW,202,5.8,5.8,69,0.00,CLR,,0.02,WeatherDisplay:10.37,2016-07-25 23:15:00,
2016-07-25 19:20:00,80.2,68.7,29.96,WSW,248,3.5,3.5,68,0.00,CLR,,0.02,WeatherDisplay:10.37,2016-07-25 23:20:00,
2016-07-25 19:25:00,79.9,68.4,29.96,SSE,158,3.7,3.7,68,0.00,CLR,,0.02,WeatherDisplay:10.37,2016-07-25 23:25:00,
2016-07-25 19:30:00,79.2,68.1,29.96,SSW,202,4.6,4.6,69,0.00,CLR,,0.02,WeatherDisplay:10.37,2016-07-25 23:30:00,
2016-07-25 19:35:00,79.3,68.7,29.96,SSW,202,2.7,2.7,70,0.00,CLR,,0.02,WeatherDisplay:10.37,2016-07-25 23:35:00,
2016-07-25 19:40:00,79.2,69.0,29.97,SW,225,4.6,4.6,71,0.00,CLR,,0.02,WeatherDisplay:10.37,2016-07-25 23:40:00,
2016-07-25 19:45:00,78.8,68.6,29.97,NNW,338,2.3,2.3,71,0.00,CLR,,0.02,WeatherDisplay:10.37,2016-07-25 23:45:00,
2016-07-25 19:50:00,78.8,68.6,29.96,SSE,158,2.3,2.3,71,0.00,CLR,,0.02,WeatherDisplay:10.37,2016-07-25 23:50:00,
2016-07-25 19:55:00,78.3,68.1,29.96,East,90,4.6,4.6,71,0.00,CLR,,0.02,WeatherDisplay:10.37,2016-07-25 23:55:00,
2016-07-25 20:00:00,78.3,68.5,29.96,South,180,3.2,3.2,72,0.00,CLR,,0.02,WeatherDisplay:10.37,2016-07-26 00:00:00,
2016-07-25 20:05:00,78.1,68.3,29.97,SSW,202,3.5,3.5,72,0.00,CLR,,0.02,WeatherDisplay:10.37,2016-07-26 00:05:00,
2016-07-25 20:10:00,77.5,68.2,29.97,South,180,2.3,2.3,73,0.00,CLR,,0.02,WeatherDisplay:10.37,2016-07-26 00:10:00,
2016-07-25 20:15:00,77.7,68.4,29.97,SW,225,3.5,3.5,73,0.00,CLR,,0.02,WeatherDisplay:10.37,2016-07-26 00:15:00,
2016-07-25 20:20:00,77.4,68.1,29.97,WSW,248,4.6,4.6,73,0.00,CLR,,0.02,WeatherDisplay:10.37,2016-07-26 00:20:00,
2016-07-25 20:25:00,77.4,68.5,29.97,South,180,4.6,4.6,74,0.00,CLR,,0.02,WeatherDisplay:10.37,2016-07-26 00:25:00,
2016-07-25 20:30:00,77.2,68.3,29.97,SW,225,2.3,2.5,74,0.00,CLR,,0.02,WeatherDisplay:10.37,2016-07-26 00:30:00,
2016-07-25 20:35:00,77.0,68.1,29.97,WSW,248,1.2,0.0,74,0.00,CLR,,0.02,WeatherDisplay:10.37,2016-07-26 00:35:00,
2016-07-25 20:40:00,76.8,68.3,29.97,WNW,292,3.5,3.5,75,0.00,CLR,,0.02,WeatherDisplay:10.37,2016-07-26 00:40:00,
2016-07-25 20:45:00,76.6,68.1,29.97,WSW,248,3.5,3.5,75,0.00,CLR,,0.02,WeatherDisplay:10.37,2016-07-26 00:45:00,
2016-07-25 20:50:00,76.5,68.0,29.98,SSW,202,3.5,3.5,75,0.00,CLR,,0.02,WeatherDisplay:10.37,2016-07-26 00:50:00,
2016-07-25 20:55:00,76.3,68.2,29.98,SSW,202,3.5,3.5,76,0.00,CLR,,0.02,WeatherDisplay:10.37,2016-07-26 00:55:00,
2016-07-25 21:00:00,76.1,68.0,29.98,SW,225,3.2,3.2,76,0.00,CLR,,0.02,WeatherDisplay:10.37,2016-07-26 01:00:00,
2016-07-25 21:05:00,76.1,68.4,29.98,West,270,3.7,3.7,77,0.00,CLR,,0.02,WeatherDisplay:10.37,2016-07-26 01:05:00,
2016-07-25 21:10:00,75.9,68.2,29.98,SW,225,5.8,5.8,77,0.00,CLR,,0.02,WeatherDisplay:10.37,2016-07-26 01:10:00,
2016-07-25 21:15:00,75.9,68.2,29.98,SW,225,5.8,5.8,77,0.00,CLR,,0.02,WeatherDisplay:10.37,2016-07-26 01:15:00,
2016-07-25 21:20:00,76.1,68.4,29.98,SW,225,5.8,5.8,77,0.00,CLR,,0.02,WeatherDisplay:10.37,2016-07-26 01:20:00,
2016-07-25 21:25:00,76.1,68.4,29.98,SW,225,5.8,5.8,77,0.00,CLR,,0.02,WeatherDisplay:10.37,2016-07-26 01:25:00,
2016-07-25 21:30:00,76.3,68.2,29.98,WSW,248,5.8,5.8,76,0.00,CLR,,0.02,WeatherDisplay:10.37,2016-07-26 01:30:00,
2016-07-25 21:36:00,76.5,68.4,29.98,South,180,5.8,5.8,76,0.00,CLR,,0.02,WeatherDisplay:10.37,2016-07-26 01:36:00,
2016-07-25 21:41:00,76.5,68.4,29.98,SW,225,6.9,6.9,76,0.00,CLR,,0.02,WeatherDisplay:10.37,2016-07-26 01:41:00,
2016-07-25 21:46:00,76.5,68.4,29.98,SSW,202,5.8,5.8,76,0.00,CLR,,0.02,WeatherDisplay:10.37,2016-07-26 01:46:00,
2016-07-25 21:51:00,76.5,68.4,29.98,SSW,202,4.6,4.6,76,0.00,CLR,,0.02,WeatherDisplay:10.37,2016-07-26 01:51:00,
2016-07-25 21:56:00,76.3,68.6,29.98,SSW,202,3.7,3.7,77,0.00,CLR,,0.02,WeatherDisplay:10.37,2016-07-26 01:56:00,
2016-07-25 22:01:00,76.3,68.9,29.98,SSW,202,2.3,2.6,78,0.00,CLR,,0.02,WeatherDisplay:10.37,2016-07-26 02:01:00,
2016-07-25 22:06:00,75.9,68.5,29.98,WSW,248,4.2,4.2,78,0.00,CLR,,0.02,WeatherDisplay:10.37,2016-07-26 02:06:00,
2016-07-25 22:11:00,75.7,68.7,29.98,SSW,202,2.3,2.3,79,0.00,CLR,,0.02,WeatherDisplay:10.37,2016-07-26 02:11:00,
2016-07-25 22:16:00,75.7,68.7,29.98,South,180,2.7,2.7,79,0.00,CLR,,0.02,WeatherDisplay:10.37,2016-07-26 02:16:00,
2016-07-25 22:21:00,75.7,69.1,29.98,SSE,158,3.5,3.5,80,0.00,CLR,,0.02,WeatherDisplay:10.37,2016-07-26 02:21:00,